[ hide orbit diagram ]
For accurate long-term ephemerides, please instead use our Horizons system.This orbit viewer was implemented using two-body methods, and hence should not be used for determining accurate long-term trajectories (over several years or decades) or planetary encounter circumstances.
[ revert to old Java-based viewer ]
Orbital Elements at Epoch 2458600.5 (2019-Apr-27.0) TDB
Reference: JPL 10 (heliocentric ecliptic J2000)
Element | Value | Uncertainty (1-sigma) | Units |
e | .1745773876432193 | 8.5669e-08 | |
a | 2.346580390435244 | 1.6046e-08 | au |
q | 1.936920515978253 | 2.0467e-07 | au |
i | 2.56564266051317 | 8.2909e-06 | deg |
node | 318.9801905412193 | 0.00010825 | deg |
peri | 190.0700091584982 | 0.00010922 | deg |
M | 310.47958770108 | 1.42e-05 | deg |
tp | 2458781.106482199979 (2019-Oct-24.60648220) | 5.2494e-05 | TDB |
period | 1312.960263729679 3.59 | 1.3467e-05 3.687e-08 | d yr |
n | .2741895622776587 | 2.8123e-09 | deg/d |
Q | 2.756240264892234 | 1.8847e-08 | au |
|
| | Orbit Determination Parameters
Additional Information
|
[ show covariance matrix ]
Physical Parameter Table
Parameter |
Symbol |
Value |
Units |
Sigma |
Reference |
Notes |
absolute magnitude |
H |
17.4 |
|
n/a |
MPO418593 |
|
|
305148 (2007 VC195) Discovered 2007-Nov-07 by Mt. Lemmon Survey at Mount Lemmon |
Reference: 20111110/Numbers.arc | Last Updated: 2011-11-14 |
|
|